DW0805 Weather Reports


time (UTC)temp
C
wind
direction
speed
KPH
gust
KPH
rain 1hr
cm
rain 24hr
cm
rain mn
cm
humidity
%
barometer
mb
20260505011514 7 313 4.8 12.9 0.00 0.05 0.00 87 1011.4
20260505005514 7 302 4.8 14.5 0.00 0.05 0.00 87 1011.4
20260505004514 7 307 9.7 14.5 0.00 0.05 0.00 87 1011.4
20260505003513 7 296 6.4 14.5 0.00 0.05 0.00 87 1011.5
20260505002513 7 296 6.4 14.5 0.00 0.05 0.00 87 1011.5
20260505001513 7 292 6.4 19.3 0.00 0.05 0.00 87 1011.5
20260504235514 7 302 8.0 14.5 0.00 0.05 0.00 87 1011.4
20260504234514 7 304 4.8 12.9 0.00 0.05 0.00 87 1011.4
20260504231513 8 314 6.4 14.5 0.00 0.08 0.00 87 1011.4
20260504230514 8 319 6.4 19.3 0.00 0.08 0.00 87 1011.5
20260504223513 8 314 4.8 9.7 0.00 0.10 0.00 87 1011.5
20260504222514 8 299 3.2 8.0 0.00 0.13 0.00 87 1011.5
20260504221510 8 319 4.8 9.7 0.00 0.13 0.00 87 1011.6
20260504220513 8 283 3.2 9.7 0.00 0.13 0.00 87 1011.6
20260504215514 8 313 4.8 11.3 0.00 0.13 0.13 87 1011.6
20260504211514 8 309 4.8 11.3 0.00 0.30 0.13 88 1011.6
20260504210514 8 319 4.8 9.7 0.00 0.30 0.13 89 1011.6
20260504205513 8 324 3.2 8.0 0.00 0.33 0.13 89 1011.6
20260504204513 8 328 3.2 4.8 0.00 0.33 0.13 89 1011.5
20260504203513 8 328 0.0 3.2 0.00 0.36 0.13 88 1011.5
20260504195512 9 333 1.6 8.0 0.00 0.51 0.13 86 1011.2
20260504194512 9 315 1.6 4.8 0.00 0.51 0.13 85 1011.2
20260504191512 10 298 0.0 3.2 0.00 0.51 0.13 81 1011.1
20260504190512 11 305 1.6 3.2 0.00 0.51 0.13 79 1011.1
20260504184513 11 281 3.2 8.0 0.00 0.51 0.13 77 1011.0
20260504182512 12 304 6.4 12.9 0.00 0.51 0.13 73 1010.9
20260504180512 12 0 8.0 16.1 0.00 0.51 0.13 67 1010.7
20260504173512 13 259 12.9 20.9 0.00 0.51 0.13 63 1010.7
20260504172512 14 246 9.7 19.3 0.00 0.51 0.13 63 1010.7
20260504171512 14 267 11.3 25.7 0.00 0.51 0.13 59 1010.7
20260504170512 14 272 12.9 25.7 0.00 0.51 0.13 60 1010.7
20260504100512 13 321 16.1 29.0 0.00 0.51 0.13 73 1009.9
20260504045513 10 311 4.8 9.7 0.00 0.48 0.10 96 1006.1
20260504043513 10 339 4.8 9.7 0.00 0.48 0.10 96 1006.0
20260504040512 11 346 4.8 14.5 0.00 0.48 0.10 96 1005.8
20260504035513 11 346 8.0 16.1 0.00 0.48 0.10 96 1005.8
20260504032512 12 234 14.5 22.5 0.00 0.48 0.10 96 1005.6
20260504025512 12 237 14.5 22.5 0.03 0.48 0.10 96 1005.6
20260504024512 12 229 11.3 24.1 0.03 0.48 0.10 96 1005.6
20260504022512 11 197 4.8 9.7 0.03 0.48 0.10 96 1005.7
20260504021513 11 324 0.0 0.0 0.03 0.48 0.10 96 1005.8
20260504020512 11 318 0.0 0.0 0.00 0.46 0.08 96 1005.7
20260504015512 11 323 0.0 0.0 0.03 0.46 0.08 96 1005.6
20260504014512 11 318 0.0 0.0 0.03 0.46 0.08 96 1005.7